My Profile
  1. Member Settings
  2. My Devices
  3. Sign Out
        More Settings
      Elev 1106 ft, 40.362 °N 79.858 °W

      West Mifflin, PA

      Allegheny County Airport Station88°

      Daily Observations

      DateTemp High/LowDew Pt High/LowHumidityWindMax WindWind GustPressurePrecip.Condition
      2/28/2021 58 °F / 27 °F 57 °F / 38 °F 95 % 14 mph - 28.59 in 2.47 in
      2/27/2021 58 °F / 40 °F 45 °F / 33 °F 75 % 12 mph - 28.72 in 0.01 in
      2/26/2021 52 °F / 40 °F 32 °F / 16 °F 58 % 18 mph - 28.91 in 0 in
      2/25/2021 44 °F / 27 °F 30 °F / 17 °F 60 % 14 mph - 28.86 in 0 in
      2/24/2021 44 °F / 29 °F 43 °F / 27 °F 68 % 20 mph - 28.56 in 0.26 in
      2/23/2021 62 °F / 31 °F 31 °F / 27 °F 67 % 22 mph - 28.44 in 0 in
      2/22/2021 47 °F / 33 °F 36 °F / 16 °F 81 % 28 mph - 28.5 in 0.23 in
      2/21/2021 40 °F / 32 °F 16 °F / 6 °F 63 % 9 mph - 29.04 in 0 in
      2/20/2021 35 °F / 8 °F 14 °F / 8 °F 71 % 14 mph - 28.93 in 0 in
      2/19/2021 23 °F / 14 °F 27 °F / 13 °F 85 % 14 mph - 28.8 in 0 in
      2/18/2021 28 °F / 20 °F 25 °F / 20 °F 87 % 9 mph - 28.83 in 0.21 in
      2/17/2021 29 °F / 22 °F 20 °F / 7 °F 74 % 9 mph - 28.95 in 0.03 in
      2/16/2021 27 °F / 10 °F 36 °F / 8 °F 85 % 21 mph - 28.47 in 0.21 in
      2/15/2021 38 °F / 15 °F 33 °F / 19 °F 89 % 12 mph - 28.62 in 1.94 in
      2/14/2021 34 °F / 23 °F 27 °F / 19 °F 86 % 9 mph - 28.84 in 0 in
      2/13/2021 28 °F / 24 °F 28 °F / 17 °F 87 % 8 mph - 28.72 in 0 in
      2/12/2021 30 °F / 24 °F 22 °F / 11 °F 73 % 9 mph - 28.83 in 0.01 in
      2/11/2021 32 °F / 21 °F 21 °F / 12 °F 79 % 12 mph - 28.86 in 0.04 in
      2/10/2021 29 °F / 20 °F 22 °F / 15 °F 82 % 9 mph - 28.87 in 0.27 in
      2/9/2021 28 °F / 21 °F 25 °F / 19 °F 86 % 8 mph - 28.81 in 0.8 in
      2/8/2021 30 °F / 23 °F 21 °F / 2 °F 59 % 6 mph - 28.9 in 0.16 in
      2/7/2021 31 °F / 11 °F 16 °F / 1 °F 57 % 12 mph - 28.67 in 0 in
      2/6/2021 30 °F / 14 °F 21 °F / 6 °F 51 % 23 mph - 28.65 in 0 in
      2/5/2021 32 °F / 22 °F 35 °F / 16 °F 73 % 24 mph - 28.3 in 0.06 in
      2/4/2021 39 °F / 29 °F 32 °F / 11 °F 70 % 20 mph - 28.57 in 0.02 in
      2/3/2021 38 °F / 14 °F 21 °F / 15 °F 71 % 17 mph - 28.53 in 0 in
      2/2/2021 35 °F / 22 °F 27 °F / 13 °F 82 % 20 mph - 28.46 in 0.13 in
      2/1/2021 31 °F / 24 °F 29 °F / 25 °F 90 % 10 mph - 28.48 in 0.42 in

      Charts

      Temperature
      Precipitation
      Wind
      essentialaccessibility.com
      We recognize our responsibility to use data and technology for good. We may use or share your data with our data vendors. Take control of your data.
      Glossary